Volver al catálogo

STARLINK-35464

ActivoComunicacionesVLEO
NORAD 65881·PAYLOAD·🇺🇸 United States

Lanzado Oct 3, 2025 desde Vandenberg Space Force Base

Loading…

Próximos Pases (próximas 24 horas)

TLE

ActualizadoSource: CelesTrak SupGP

Época: Sep 14, 2026, 15:59 UTC

1 65881C 25223AD  26257.66645833  .00074526  00000+0  21999-2 0  2577
2 65881  53.1565 132.6764 0001244 104.1417 170.3627 15.34381563    19

Sigue STARLINK-35464 en tiempo real con AllMySat

Download on the App Store